Location: Mentone
(34.5413°N, 85.5351°W)
Time: 11:50:43
(UTC-05:00)

Transit 2A Rocket - Visible Passes

Search period start: 30 September 2016 00:00
Search period end: 10 October 2016 00:00
Orbit: 586 x 918 km, 66.7° (Epoch: 30 September)

Date Brightness Start Highest point End Pass type
(mag) Time Alt. Az. Time Alt. Az. Time Alt. Az.
03 Oct 7.5 21:17:34 10° N 21:18:05 12° N 21:18:05 12° N visible
04 Oct 7.1 20:35:47 10° N 20:36:57 14° N 20:36:57 14° N visible
05 Oct 7.0 19:54:39 10° NNE 19:55:52 12° NNE 19:55:52 12° NNE visible
05 Oct 7.7 21:35:15 10° NNW 21:35:47 13° NNW 21:35:47 13° NNW visible
06 Oct 6.9 20:52:57 10° NNW 20:54:45 21° NNW 20:54:45 21° NNW visible
07 Oct 6.3 20:10:58 10° N 20:13:47 25° NNE 20:13:47 25° NNE visible
08 Oct 6.4 19:29:20 10° N 19:32:53 18° NE 19:32:54 18° NE visible
08 Oct 7.1 21:10:59 10° NW 21:12:51 21° NW 21:12:51 21° NW visible
09 Oct 6.8 18:48:51 10° NNE 18:50:05 11° NE 18:51:17 10° ENE visible
09 Oct 5.6 20:28:29 10° NNW 20:32:03 45° NNW 20:32:03 45° NNW visible
